When you browse on this site, cookies collect data to enhance your experience and personalize the content and advertising you see.
Visit our Privacy Policy to learn more. By continuing to use the site, you agree to this use of cookies and data.
  • In Austria
  • List of Countries
  • For 7 days
  • Water Temperature
  • Satellite Maps
  • Weather Map
  • News
  • Weather Widgets
  • user-avatar
    Login

    Hourly Weather Proshkovo

    Today, 16 February, Saturday

    Time Temperature Precipitation Wind Pressure Humidity
    00:00 -1°C° 0 mm 4 mps 751 mmHg 95%
    01:00 0°C° 0 mm 4 mps 751 mmHg 96%
    02:00 0°C° 0 mm 4 mps 751 mmHg 96%
    03:00 +1°C° 0 mm 3 mps 751 mmHg 96%
    04:00 0°C° 0 mm 3 mps 751 mmHg 97%
    05:00 0°C° 0 mm 3 mps 751 mmHg 97%
    06:00 0°C° 0 mm 3 mps 751 mmHg 97%
    07:00 +1°C° 0 mm 2 mps 751 mmHg 97%
    08:00 +1°C° 0 mm 2 mps 751 mmHg 97%
    09:00 +1°C° 0 mm 3 mps 750 mmHg 96%
    10:00 +1°C° 0 mm 3 mps 750 mmHg 94%
    11:00 +1°C° 0 mm 3 mps 750 mmHg 93%
    12:00 +2°C° 0 mm 3 mps 749 mmHg 91%
    13:00 +2°C° 0 mm 3 mps 749 mmHg 89%
    14:00 +3°C° 0 mm 3 mps 748 mmHg 87%
    15:00 +2°C° 0 mm 3 mps 748 mmHg 86%
    16:00 +2°C° 0 mm 3 mps 748 mmHg 86%
    17:00 +1°C° 0 mm 3 mps 747 mmHg 85%
    18:00 +1°C° 0 mm 3 mps 747 mmHg 85%
    19:00 +1°C° 0 mm 3 mps 746 mmHg 84%
    20:00 0°C° 0 mm 3 mps 746 mmHg 84%
    21:00 0°C° 0 mm 3 mps 745 mmHg 84%
    22:00 -1°C° 0 mm 4 mps 745 mmHg 85%
    23:00 -1°C° 0 mm 4 mps 744 mmHg 86%

    Tomorrow, 17 February, Sunday

    Time Temperature Precipitation Wind Pressure Humidity
    00:00 -1°C° 0 mm 4 mps 744 mmHg 86%
    01:00 -1°C° 0 mm 4 mps 744 mmHg 87%
    02:00 -1°C° 0 mm 4 mps 744 mmHg 87%
    03:00 -1°C° 0 mm 4 mps 744 mmHg 88%
    04:00 -1°C° 0 mm 4 mps 743 mmHg 89%
    05:00 -1°C° 0 mm 4 mps 743 mmHg 89%
    06:00 -1°C° 0 mm 4 mps 743 mmHg 89%
    07:00 -1°C° 0 mm 4 mps 744 mmHg 89%
    08:00 -1°C° 0 mm 4 mps 744 mmHg 89%
    09:00 -1°C° 0 mm 4 mps 744 mmHg 84%
    10:00 -1°C° 0 mm 5 mps 744 mmHg 79%
    11:00 -1°C° 0 mm 5 mps 744 mmHg 74%
    12:00 -1°C° 0 mm 5 mps 745 mmHg 72%
    13:00 -2°C° 0 mm 6 mps 745 mmHg 71%
    14:00 -1°C° 0 mm 6 mps 745 mmHg 70%
    15:00 -2°C° 0 mm 6 mps 746 mmHg 71%
    16:00 -2°C° 0 mm 5 mps 746 mmHg 72%
    17:00 -4°C° 0 mm 5 mps 747 mmHg 73%
    18:00 -4°C° 0 mm 5 mps 747 mmHg 73%
    19:00 -4°C° 0 mm 5 mps 748 mmHg 74%
    20:00 -5°C° 0 mm 5 mps 748 mmHg 74%
    21:00 -5°C° 0 mm 5 mps 749 mmHg 75%
    22:00 -4°C° 0 mm 4 mps 750 mmHg 75%
    23:00 -5°C° 0 mm 4 mps 750 mmHg 76%

    Day after tomorrow, 18 February, Monday

    Time Temperature Precipitation Wind Pressure Humidity
    00:00 -5°C° 0 mm 4 mps 751 mmHg 77%
    01:00 -5°C° 0 mm 4 mps 751 mmHg 78%
    02:00 -5°C° 0 mm 4 mps 752 mmHg 79%
    03:00 -6°C° 0 mm 3 mps 752 mmHg 80%
    04:00 -6°C° 0 mm 3 mps 753 mmHg 81%
    05:00 -6°C° 0 mm 3 mps 753 mmHg 82%
    06:00 -6°C° 0 mm 3 mps 754 mmHg 82%
    07:00 -7°C° 0 mm 3 mps 754 mmHg 83%
    08:00 -6°C° 0 mm 2 mps 755 mmHg 84%
    09:00 -5°C° 0 mm 2 mps 755 mmHg 80%
    10:00 -5°C° 0 mm 2 mps 756 mmHg 77%
    11:00 -4°C° 0 mm 2 mps 756 mmHg 73%
    12:00 -1°C° 0 mm 1 mps 756 mmHg 70%
    13:00 -1°C° 0 mm 1 mps 756 mmHg 67%
    14:00 -1°C° 0 mm 1 mps 756 mmHg 64%
    15:00 -1°C° 0 mm 1 mps 756 mmHg 67%
    16:00 -2°C° 0 mm 1 mps 756 mmHg 71%
    17:00 -2°C° 0 mm 1 mps 756 mmHg 75%
    18:00 -2°C° 0 mm 1 mps 756 mmHg 75%
    19:00 -5°C° 0 mm 2 mps 756 mmHg 75%
    20:00 -5°C° 0 mm 2 mps 756 mmHg 75%
    21:00 -5°C° 0 mm 3 mps 755 mmHg 73%
    22:00 -5°C° 0 mm 3 mps 755 mmHg 72%
    23:00 -5°C° 0 mm 4 mps 754 mmHg 71%

    19 February, Tuesday

    Time Temperature Precipitation Wind Pressure Humidity
    00:00 -4°C° 0 mm 4 mps 754 mmHg 68%
    01:00 -4°C° 0 mm 4 mps 754 mmHg 66%
    02:00 -5°C° 0 mm 5 mps 753 mmHg 64%
    03:00 -5°C° 0 mm 5 mps 753 mmHg 65%
    04:00 -5°C° 0 mm 5 mps 752 mmHg 67%
    05:00 -5°C° 0 mm 5 mps 751 mmHg 68%
    06:00 -4°C° 0 mm 5 mps 751 mmHg 71%
    07:00 -4°C° 0 mm 5 mps 751 mmHg 74%
    08:00 -4°C° 0 mm 5 mps 750 mmHg 76%
    09:00 -2°C° 0 mm 5 mps 750 mmHg 76%
    10:00 -1°C° 0 mm 5 mps 749 mmHg 75%
    11:00 0°C° 0 mm 5 mps 749 mmHg 75%
    12:00 0°C° 0 mm 5 mps 748 mmHg 74%
    13:00 +1°C° 0 mm 5 mps 748 mmHg 74%
    14:00 +1°C° 0 mm 5 mps 747 mmHg 73%
    15:00 +1°C° 0 mm 5 mps 747 mmHg 75%
    16:00 0°C° 0 mm 5 mps 746 mmHg 77%
    17:00 0°C° 0 mm 5 mps 746 mmHg 80%
    18:00 -1°C° 0 mm 5 mps 745 mmHg 81%
    19:00 -1°C° 0 mm 5 mps 745 mmHg 83%
    20:00 -1°C° 0 mm 5 mps 744 mmHg 84%
    21:00 -1°C° 0 mm 5 mps 744 mmHg 86%
    22:00 -1°C° 0 mm 5 mps 743 mmHg 87%
    23:00 -1°C° 0 mm 5 mps 743 mmHg 88%

    20 February, Wednesday

    Time Temperature Precipitation Wind Pressure Humidity
    00:00 -1°C° 0.1 mm 4 mps 742 mmHg 89%
    01:00 -1°C° 0.1 mm 4 mps 741 mmHg 90%
    02:00 -1°C° 0.1 mm 4 mps 740 mmHg 90%
    03:00 -1°C° 1.2 mm 4 mps 740 mmHg 91%
    04:00 -1°C° 1.2 mm 4 mps 739 mmHg 91%
    05:00 -1°C° 1.2 mm 4 mps 738 mmHg 91%
    06:00 -1°C° 0.5 mm 4 mps 738 mmHg 92%
    07:00 -1°C° 0.5 mm 4 mps 738 mmHg 93%
    08:00 0°C° 0.5 mm 3 mps 738 mmHg 94%
    09:00 0°C° 0.3 mm 4 mps 738 mmHg 93%
    10:00 0°C° 0.3 mm 4 mps 738 mmHg 91%
    11:00 0°C° 0.3 mm 4 mps 738 mmHg 90%
    12:00 0°C° 0.3 mm 4 mps 737 mmHg 89%
    13:00 +1°C° 0.3 mm 4 mps 737 mmHg 88%
    14:00 +1°C° 0.3 mm 4 mps 737 mmHg 87%
    15:00 +1°C° 0.4 mm 5 mps 737 mmHg 85%
    16:00 0°C° 0.4 mm 5 mps 737 mmHg 83%
    17:00 0°C° 0.4 mm 5 mps 737 mmHg 81%
    18:00 0°C° 0.2 mm 5 mps 737 mmHg 81%
    19:00 -1°C° 0.2 mm 5 mps 737 mmHg 80%
    20:00 -1°C° 0.2 mm 5 mps 737 mmHg 80%
    21:00 -2°C° 0.3 mm 5 mps 737 mmHg 81%
    22:00 -3°C° 0.3 mm 6 mps 738 mmHg 83%
    23:00 -3°C° 0.3 mm 6 mps 738 mmHg 85%

    21 February, Thursday

    Time Temperature Precipitation Wind Pressure Humidity
    00:00 -3°C° 0.3 mm 6 mps 739 mmHg 85%
    01:00 -2°C° 0.3 mm 6 mps 739 mmHg 85%
    02:00 -2°C° 0.3 mm 6 mps 740 mmHg 85%
    03:00 -2°C° 0.2 mm 5 mps 740 mmHg 85%
    04:00 -2°C° 0.2 mm 5 mps 741 mmHg 85%
    05:00 -2°C° 0.2 mm 5 mps 741 mmHg 85%
    06:00 -4°C° 0.1 mm 5 mps 742 mmHg 82%
    07:00 -5°C° 0.1 mm 5 mps 742 mmHg 79%
    08:00 -6°C° 0.1 mm 5 mps 743 mmHg 77%
    09:00 -6°C° 0.1 mm 6 mps 744 mmHg 75%
    10:00 -6°C° 0.1 mm 6 mps 744 mmHg 73%
    11:00 -6°C° 0.1 mm 6 mps 744 mmHg 71%
    12:00 -6°C° 0.1 mm 6 mps 745 mmHg 71%
    13:00 -5°C° 0.1 mm 6 mps 746 mmHg 71%
    14:00 -5°C° 0.1 mm 6 mps 746 mmHg 70%
    15:00 -6°C° 0.1 mm 6 mps 747 mmHg 70%
    16:00 -6°C° 0.1 mm 6 mps 748 mmHg 69%
    17:00 -7°C° 0.1 mm 5 mps 749 mmHg 69%
    18:00 -8°C° 0 mm 5 mps 749 mmHg 69%
    19:00 -8°C° 0 mm 5 mps 750 mmHg 70%
    20:00 -9°C° 0 mm 4 mps 751 mmHg 71%
    21:00 -9°C° 0 mm 4 mps 751 mmHg 71%
    22:00 -10°C° 0 mm 4 mps 752 mmHg 72%
    23:00 -10°C° 0 mm 4 mps 753 mmHg 72%
    Show more